Meteo orario Godzieby

Oggi, 12 Aprile, Lunedi

Tempo Temperatura Precipitazioni Vento Pressione Umidità
00:00 +11°C° 0 mm 6 m/s 750 mm Hg 58%
01:00 +10°C° 0 mm 6 m/s 750 mm Hg 58%
02:00 +10°C° 0 mm 5 m/s 749 mm Hg 58%
03:00 +9°C° 0 mm 5 m/s 749 mm Hg 60%
04:00 +8°C° 0 mm 5 m/s 749 mm Hg 61%
05:00 +8°C° 0 mm 5 m/s 749 mm Hg 63%
06:00 +8°C° 0 mm 5 m/s 749 mm Hg 63%
07:00 +8°C° 0 mm 5 m/s 749 mm Hg 63%
08:00 +8°C° 0 mm 5 m/s 749 mm Hg 63%
09:00 +9°C° 0 mm 5 m/s 749 mm Hg 63%
10:00 +9°C° 0 mm 5 m/s 749 mm Hg 64%
11:00 +10°C° 0 mm 5 m/s 749 mm Hg 64%
12:00 +12°C° 0 mm 5 m/s 749 mm Hg 64%
13:00 +12°C° 0 mm 5 m/s 749 mm Hg 65%
14:00 +13°C° 0 mm 4 m/s 748 mm Hg 65%
15:00 +13°C° 0 mm 4 m/s 748 mm Hg 68%
16:00 +13°C° 0 mm 3 m/s 748 mm Hg 70%
17:00 +13°C° 0 mm 3 m/s 748 mm Hg 73%
18:00 +12°C° 0.1 mm 3 m/s 748 mm Hg 76%
19:00 +13°C° 0.1 mm 2 m/s 748 mm Hg 79%
20:00 +12°C° 0.1 mm 2 m/s 748 mm Hg 82%
21:00 +10°C° 0.1 mm 3 m/s 749 mm Hg 85%
22:00 +8°C° 0.1 mm 4 m/s 749 mm Hg 88%
23:00 +7°C° 0.1 mm 5 m/s 749 mm Hg 91%

Domani, 13 Aprile, Martedi

Tempo Temperatura Precipitazioni Vento Pressione Umidità
00:00 +6°C° 0 mm 5 m/s 750 mm Hg 90%
01:00 +5°C° 0 mm 5 m/s 750 mm Hg 89%
02:00 +2°C° 0 mm 5 m/s 751 mm Hg 87%
03:00 +2°C° 0 mm 5 m/s 751 mm Hg 87%
04:00 +2°C° 0 mm 5 m/s 751 mm Hg 86%
05:00 +2°C° 0 mm 5 m/s 751 mm Hg 85%
06:00 +2°C° 0 mm 5 m/s 752 mm Hg 83%
07:00 +2°C° 0 mm 5 m/s 752 mm Hg 81%
08:00 +2°C° 0 mm 5 m/s 752 mm Hg 79%
09:00 +3°C° 0 mm 5 m/s 752 mm Hg 76%
10:00 +3°C° 0 mm 6 m/s 752 mm Hg 73%
11:00 +3°C° 0 mm 6 m/s 752 mm Hg 70%
12:00 +3°C° 0 mm 6 m/s 752 mm Hg 70%
13:00 +3°C° 0 mm 6 m/s 752 mm Hg 70%
14:00 +3°C° 0 mm 6 m/s 752 mm Hg 70%
15:00 +3°C° 0.7 mm 5 m/s 752 mm Hg 78%
16:00 +2°C° 0.7 mm 5 m/s 752 mm Hg 87%
17:00 +1°C° 0.7 mm 5 m/s 752 mm Hg 95%
18:00 +1°C° 0.8 mm 5 m/s 752 mm Hg 95%
19:00 +1°C° 0.8 mm 6 m/s 752 mm Hg 96%
20:00 -1°C° 0.8 mm 6 m/s 752 mm Hg 96%
21:00 -1°C° 0.6 mm 6 m/s 752 mm Hg 96%
22:00 -1°C° 0.6 mm 6 m/s 752 mm Hg 96%
23:00 -2°C° 0.6 mm 7 m/s 751 mm Hg 95%

Dopodomani, 14 Aprile, Mercoledi

Tempo Temperatura Precipitazioni Vento Pressione Umidità
00:00 -2°C° 0.5 mm 7 m/s 751 mm Hg 96%
01:00 -2°C° 0.5 mm 6 m/s 751 mm Hg 96%
02:00 -3°C° 0.5 mm 6 m/s 751 mm Hg 96%
03:00 -2°C° 0.5 mm 6 m/s 751 mm Hg 96%
04:00 -2°C° 0.5 mm 6 m/s 750 mm Hg 96%
05:00 -2°C° 0.5 mm 6 m/s 750 mm Hg 95%
06:00 -1°C° 0.3 mm 5 m/s 750 mm Hg 95%
07:00 -1°C° 0.3 mm 5 m/s 750 mm Hg 95%
08:00 -1°C° 0.3 mm 5 m/s 750 mm Hg 95%
09:00 0°C° 0.2 mm 5 m/s 750 mm Hg 94%
10:00 0°C° 0.2 mm 5 m/s 750 mm Hg 92%
11:00 +1°C° 0.2 mm 5 m/s 750 mm Hg 91%
12:00 +1°C° 0.3 mm 5 m/s 750 mm Hg 91%
13:00 +1°C° 0.3 mm 5 m/s 750 mm Hg 91%
14:00 +2°C° 0.3 mm 5 m/s 750 mm Hg 91%
15:00 +2°C° 0.2 mm 5 m/s 750 mm Hg 91%
16:00 +3°C° 0.2 mm 4 m/s 749 mm Hg 92%
17:00 +3°C° 0.2 mm 4 m/s 749 mm Hg 92%
18:00 +3°C° 0.3 mm 4 m/s 749 mm Hg 94%
19:00 +3°C° 0.3 mm 4 m/s 749 mm Hg 95%
20:00 +1°C° 0.3 mm 4 m/s 749 mm Hg 97%
21:00 +1°C° 0.3 mm 4 m/s 749 mm Hg 97%
22:00 +1°C° 0.3 mm 5 m/s 749 mm Hg 97%
23:00 +1°C° 0.3 mm 5 m/s 749 mm Hg 97%

15 Aprile, Giovedi

Tempo Temperatura Precipitazioni Vento Pressione Umidità
00:00 +1°C° 0.4 mm 5 m/s 749 mm Hg 97%
01:00 +1°C° 0.4 mm 5 m/s 748 mm Hg 97%
02:00 +1°C° 0.4 mm 5 m/s 748 mm Hg 97%
03:00 +1°C° 0.7 mm 5 m/s 748 mm Hg 97%
04:00 +1°C° 0.7 mm 5 m/s 748 mm Hg 97%
05:00 0°C° 0.7 mm 5 m/s 748 mm Hg 97%
06:00 0°C° 0.5 mm 5 m/s 748 mm Hg 97%
07:00 0°C° 0.5 mm 4 m/s 748 mm Hg 97%
08:00 0°C° 0.5 mm 4 m/s 748 mm Hg 97%
09:00 0°C° 0.3 mm 4 m/s 748 mm Hg 98%
10:00 +1°C° 0.3 mm 3 m/s 748 mm Hg 98%
11:00 +1°C° 0.3 mm 3 m/s 748 mm Hg 98%
12:00 +3°C° 0.1 mm 2 m/s 748 mm Hg 98%
13:00 +3°C° 0.1 mm 2 m/s 748 mm Hg 98%
14:00 +3°C° 0.1 mm 2 m/s 748 mm Hg 97%
15:00 +3°C° 0 mm 2 m/s 748 mm Hg 97%
16:00 +5°C° 0 mm 1 m/s 748 mm Hg 97%
17:00 +5°C° 0 mm 1 m/s 748 mm Hg 96%
18:00 +5°C° 0 mm 1 m/s 748 mm Hg 97%
19:00 +5°C° 0 mm 1 m/s 748 mm Hg 97%
20:00 +5°C° 0 mm 1 m/s 748 mm Hg 98%
21:00 +5°C° 0 mm 1 m/s 748 mm Hg 98%
22:00 +5°C° 0 mm 1 m/s 748 mm Hg 98%
23:00 +5°C° 0 mm 1 m/s 748 mm Hg 98%

16 Aprile, Venerdi

Tempo Temperatura Precipitazioni Vento Pressione Umidità
00:00 +5°C° 0 mm 1 m/s 748 mm Hg 98%
01:00 +5°C° 0 mm 1 m/s 748 mm Hg 98%
02:00 +5°C° 0 mm 1 m/s 748 mm Hg 98%
03:00 +4°C° 0 mm 2 m/s 748 mm Hg 98%
04:00 +4°C° 0 mm 2 m/s 748 mm Hg 98%
05:00 +4°C° 0 mm 2 m/s 748 mm Hg 98%
06:00 +4°C° 0 mm 2 m/s 748 mm Hg 96%
07:00 +4°C° 0 mm 3 m/s 748 mm Hg 95%
08:00 +4°C° 0 mm 3 m/s 748 mm Hg 93%
09:00 +5°C° 0.2 mm 3 m/s 748 mm Hg 92%
10:00 +5°C° 0.2 mm 4 m/s 748 mm Hg 91%
11:00 +6°C° 0.2 mm 4 m/s 748 mm Hg 90%
12:00 +7°C° 0 mm 4 m/s 748 mm Hg 86%
13:00 +8°C° 0 mm 4 m/s 748 mm Hg 82%
14:00 +9°C° 0 mm 5 m/s 748 mm Hg 78%
15:00 +9°C° 0 mm 5 m/s 748 mm Hg 79%
16:00 +9°C° 0 mm 5 m/s 749 mm Hg 79%
17:00 +9°C° 0 mm 5 m/s 749 mm Hg 80%
18:00 +9°C° 0 mm 5 m/s 749 mm Hg 83%
19:00 +8°C° 0 mm 5 m/s 749 mm Hg 86%
20:00 +7°C° 0 mm 5 m/s 749 mm Hg 89%
21:00 +7°C° 0.3 mm 6 m/s 749 mm Hg 90%
22:00 +7°C° 0.3 mm 6 m/s 749 mm Hg 90%
23:00 +8°C° 0.3 mm 6 m/s 749 mm Hg 91%

17 Aprile, Sabato

Tempo Temperatura Precipitazioni Vento Pressione Umidità
00:00 +7°C° 0 mm 6 m/s 749 mm Hg 91%
01:00 +7°C° 0 mm 6 m/s 749 mm Hg 91%
02:00 +7°C° 0 mm 6 m/s 750 mm Hg 92%
03:00 +7°C° 0 mm 6 m/s 750 mm Hg 92%
04:00 +7°C° 0 mm 6 m/s 750 mm Hg 92%
05:00 +7°C° 0 mm 6 m/s 750 mm Hg 92%
06:00 +7°C° 0 mm 6 m/s 750 mm Hg 91%
07:00 +8°C° 0 mm 6 m/s 751 mm Hg 89%
08:00 +8°C° 0 mm 6 m/s 751 mm Hg 88%
09:00 +8°C° 0 mm 6 m/s 751 mm Hg 86%
10:00 +9°C° 0 mm 6 m/s 752 mm Hg 85%
11:00 +9°C° 0 mm 6 m/s 752 mm Hg 83%
12:00 +9°C° 0 mm 5 m/s 752 mm Hg 83%
13:00 +9°C° 0 mm 5 m/s 753 mm Hg 83%
14:00 +9°C° 0 mm 5 m/s 753 mm Hg 83%
15:00 +9°C° 0 mm 5 m/s 753 mm Hg 81%
16:00 +10°C° 0 mm 5 m/s 753 mm Hg 80%
17:00 +10°C° 0 mm 6 m/s 753 mm Hg 78%
18:00 +10°C° 0 mm 6 m/s 753 mm Hg 79%
19:00 +9°C° 0 mm 6 m/s 753 mm Hg 80%
20:00 +9°C° 0 mm 6 m/s 754 mm Hg 81%
21:00 +9°C° 0 mm 6 m/s 754 mm Hg 82%
22:00 +8°C° 0 mm 6 m/s 754 mm Hg 82%
23:00 +8°C° 0 mm 5 m/s 754 mm Hg 83%
Mostrare altro

Abbiamo bisogno del tuo consenso

Meteoprog e i nostri fornitori di servizi possono memorizzare e accedere a dati personali come cookie, identificatori di dispositivi o altre tecnologie simili sul tuo dispositivo e possono elaborare tali dati per personalizzare i contenuti e gli annunci, nonché fornire funzionalità dei social media e analizzarne il traffico.

  • Archiviare e/o accedere alle informazioni sul tuo dispositivo

    Cookie, identificatori di dispositivi o altre informazioni possono essere memorizzati o resi accessibili sul tuo dispositivo per le finalità sopra indicate.

  • Annunci e contenuti personalizzati, misurazione di annunci e contenuti, approfondimenti sul pubblico e sviluppo di prodotti

    Gli annunci e i contenuti possono essere personalizzati in base a un profilo. È possibile aggiungere più dati per personalizzare meglio annunci e contenuti. È possibile misurare il rendimento degli annunci e dei contenuti. È possibile ricavare informazioni sul pubblico che ha visto gli annunci e i contenuti. Tali dati possono essere utilizzati per sviluppare o migliorare l'esperienza, i sistemi e il software dell'utente.

Cliccando su “Accetto”, acconsenti all'uso di cookie, identificatori di dispositivo, web beacon o altre tecnologie simili. Puoi modificare le impostazioni nel browser del tuo dispositivo.

Per determinati scopi, è possibile fare affidamento su interessi legali, piuttosto che sul consenso. Puoi approfondire questo argomento consultando la nostra Informativa sulla privacy e sui cookie.